N7JP Weather Reports


time (UTC)temp
F
wind
direction
speed
knots
gust
knots
rain 1hr
in
rain 24hr
in
rain mn
in
humidity
%
barometer
mb
20260507012021 55 225 1.7 4.3 0.00 0.00 0.00 83 1015.1
20260507010447 56 181 1.7 5.2 0.00 0.00 0.00 83 1015.1
20260507004947 56 165 2.6 6.1 0.00 0.00 0.00 81 1015.2
20260507003447 56 220 1.7 4.3 0.00 0.00 0.00 83 1015.2
20260507001947 56 247 0.9 2.6 0.00 0.00 0.00 83 1015.1
20260507000449 56 250 0.9 2.6 0.00 0.00 0.00 85 1015.1
20260506234929 56 243 0.0 1.7 0.00 0.00 0.00 85 1015.2
20260506233428 55 243 0.0 1.7 0.00 0.00 0.00 87 1015.1
20260506231913 54 243 0.0 2.6 0.00 0.00 0.00 86 1015.3
20260506230410 55 243 0.0 2.6 0.00 0.00 0.00 86 1015.3
20260506224907 55 238 0.9 3.5 0.00 0.00 0.00 86 1015.3
20260506223406 55 292 0.9 3.5 0.00 0.00 0.00 88 1015.3
20260506221904 54 232 1.7 3.5 0.00 0.00 0.00 87 1015.4
20260506220354 54 219 0.9 3.5 0.00 0.00 0.00 87 1015.4
20260506214837 55 227 1.7 4.3 0.00 0.00 0.00 89 1015.5
20260506213338 54 221 1.7 6.1 0.00 0.00 0.00 88 1015.5
20260506211815 54 308 0.9 3.5 0.00 0.00 0.00 89 1015.5
20260506210312 54 234 0.0 3.5 0.00 0.00 0.00 90 1015.5
20260506204812 54 232 0.9 3.5 0.00 0.00 0.00 88 1015.5
20260506203300 54 273 2.6 7.8 0.00 0.00 0.00 87 1015.4
20260506201742 54 201 3.5 7.8 0.00 0.00 0.00 85 1015.4
20260506200229 54 215 1.7 6.1 0.00 0.00 0.00 87 1015.1
20260506194728 54 206 1.7 7.0 0.00 0.00 0.00 88 1015.2
20260506193218 54 95 2.6 7.8 0.00 0.00 0.00 88 1015.2
20260506191653 54 96 3.5 12.2 0.00 0.00 0.00 88 1015.0
20260506190155 54 68 1.7 7.0 0.00 0.00 0.00 90 1015.0
20260506184651 53 127 0.9 6.1 0.00 0.00 0.00 90 1015.0
20260506183149 53 154 2.6 9.6 0.00 0.00 0.00 90 1014.9
20260506181651 53 90 2.6 8.7 0.00 0.00 0.00 90 1014.9
20260506180128 53 170 3.5 10.4 0.00 0.00 0.00 90 1014.8
20260506174628 53 188 2.6 7.0 0.00 0.00 0.00 90 1014.8
20260506173125 53 105 3.5 9.6 0.00 0.00 0.00 90 1014.8
20260506171622 53 202 2.6 9.6 0.00 0.00 0.00 90 1014.3
20260506170121 53 112 2.6 9.6 0.00 0.00 0.00 90 1014.5
20260506164615 53 202 0.9 6.1 0.00 0.00 0.00 90 1014.5
20260506163058 53 157 1.7 8.7 0.00 0.00 0.00 90 1014.5
20260506161545 53 157 3.5 9.6 0.00 0.00 0.00 90 1014.8
20260506160043 53 198 1.7 7.8 0.00 0.00 0.00 90 1014.4
20260506154545 53 171 3.5 8.7 0.00 0.00 0.00 90 1014.4
20260506153041 53 165 3.5 9.6 0.00 0.00 0.00 90 1014.0
20260506151540 53 155 3.5 11.3 0.00 0.00 0.00 90 1013.9
20260506150038 53 190 2.6 7.0 0.00 0.00 0.00 90 1014.1
20260506144531 52 106 1.7 7.8 0.00 0.00 0.00 90 1014.2
20260506143027 52 144 2.6 8.7 0.00 0.00 0.00 90 1013.9
20260506141510 52 86 1.7 6.1 0.00 0.00 0.00 89 1013.9
20260506140000 51 125 1.7 6.1 0.00 0.00 0.00 88 1013.8
20260506134452 51 134 1.7 3.5 0.00 0.00 0.00 87 1013.7
20260506132949 51 114 0.0 5.2 0.00 0.00 0.00 87 1013.7
20260506131451 51 98 0.0 0.9 0.00 0.00 0.00 87 1013.9
20260506125943 51 98 0.0 0.0 0.00 0.00 0.00 87 1013.7
20260506124414 51 98 0.0 1.7 0.00 0.00 0.00 87 1013.4
20260506122914 51 98 0.0 2.6 0.00 0.00 0.00 87 1013.5
20260506121414 51 99 0.0 2.6 0.00 0.00 0.00 87 1013.3
20260506115856 51 99 0.9 2.6 0.00 0.00 0.00 87 1013.2
20260506114351 50 76 0.0 0.0 0.00 0.00 0.00 87 1013.3
20260506112851 50 76 0.0 0.0 0.00 0.00 0.00 87 1013.1
20260506111350 49 76 0.0 0.0 0.00 0.00 0.00 87 1012.9
20260506105838 48 76 0.0 0.0 0.00 0.00 0.00 88 1012.8
20260506104338 48 76 0.0 0.0 0.00 0.00 0.00 88 1012.5
20260506102839 48 76 0.0 1.7 0.00 0.00 0.00 89 1012.5
20260506101338 48 76 0.0 1.7 0.00 0.00 0.00 89 1012.4
20260506095826 48 76 0.0 1.7 0.00 0.00 0.00 90 1012.3
20260506094321 48 76 0.0 2.6 0.00 0.00 0.00 90 1012.2
20260506092820 48 76 0.9 3.5 0.00 0.00 0.00 90 1012.2
20260506091320 48 64 0.0 1.7 0.00 0.00 0.00 90 1012.1
20260506085822 49 64 0.0 1.7 0.00 0.00 0.00 90 1012.2
20260506084317 49 73 0.0 3.5 0.00 0.00 0.00 90 1012.1
20260506082814 49 45 0.9 3.5 0.00 0.00 0.00 90 1012.0
20260506081309 49 86 0.0 3.5 0.00 0.00 0.00 91 1011.8
20260506072807 50 116 0.9 3.5 0.00 0.00 0.00 91 1011.4
20260506071308 50 50 0.9 4.3 0.00 0.00 0.00 91 1011.3
20260506061216 52 275 0.9 3.5 0.00 0.00 0.00 90 1011.1
20260506051147 53 49 2.6 7.8 0.00 0.00 0.00 90 1010.6
20260506044117 54 79 0.9 3.5 0.00 0.00 0.00 86 1010.2
20260506042619 54 88 0.0 3.5 0.00 0.00 0.00 85 1010.1
20260506041105 55 90 0.0 0.0 0.00 0.00 0.00 84 1009.9
20260506035605 56 90 0.0 1.7 0.00 0.00 0.00 83 1009.8
20260506034101 56 90 0.0 3.5 0.00 0.00 0.00 84 1009.8
20260506032559 56 91 1.7 3.5 0.00 0.00 0.00 83 1009.7
20260506031101 57 52 0.9 4.3 0.00 0.00 0.00 82 1009.7
20260506025531 58 345 0.9 5.2 0.00 0.00 0.00 81 1009.7
20260506024010 59 50 1.7 6.1 0.00 0.00 0.00 80 1009.6
20260506022501 60 59 0.9 3.5 0.00 0.00 0.00 80 1009.5
20260506020934 59 290 0.9 4.3 0.00 0.00 0.00 81 1009.6
20260506015429 60 299 0.9 3.5 0.00 0.00 0.00 79 1009.6
20260506013930 60 302 0.9 4.3 0.00 0.00 0.00 78 1009.6